User: anonymous
Location: Bonny Doon Airfield
(37.0704°N, 122.1252°W)
Time: 06:56:36
(UTC-07:00)
Language:

BREEZE M DEB (TANK) - Orbit

View from above orbital plane
View from above orbital plane
View from above satellite
View from above satellite

Ground track
Ground track

The orbit data is extracted from the following two-line orbital elements,

1 33437U 08057B   14112.42798936  .00004082  00000-0  95853-3 0   186
2 33437 049.5477 146.6137 5024787 322.3411 217.5919 05.55032081109547
Epoch (UTC): 22 April 2014 10:16:18
Eccentricity: 0.5024787
inclination: 49.5477°
perigee height: 326 km
apogee height: 13867 km
right ascension of ascending node: 146.6137°
argument of perigee: 322.3411°
revolutions per day: 5.55032081
mean anomaly at epoch: 217.5919°
orbit number at epoch: 10954

The dashed part of the orbit path shows where the satellite is in the earth's shadow,  

DLR